Copper Mountain, CO

1:28 PM MDT on May 23, 2018 (GMT -0600)
Copper Mountain

Weather History for KCCU - January, 2014

Change the Weather History Date:

Monday, January 13, 2014

  Actual Average Record
Temperature  
Mean Temperature 12 °F -  
Max Temperature 17 °F - 34 °F (2016)
Min Temperature 6 °F - 1 °F (2002)
Degree Days  
Heating Degree Days 54    
Moisture  
Dew Point 6 °F    
Average Humidity 75    
Maximum Humidity 79    
Minimum Humidity 67    
Precipitation  
Precipitation 0.00 in - 0.17 in (2002)
Sea Level Pressure  
Sea Level Pressure 30.08 in    
Wind  
Wind Speed 30 mph (West)    
Max Wind Speed 44 mph    
Max Gust Speed 62 mph    
T = Trace of Precipitation, MM = Missing Value Source: NWS Daily Summary

Daily Weather History Graph

Daily Weather History Graph

Search for Another Location

Airport or City:

Astronomy

Jan. 13, 2014 Rise Set
Actual Time 7:23 AM MST 5:03 PM MST
Civil Twilight 6:54 AM MST 5:32 PM MST
Nautical Twilight 6:21 AM MST 6:06 PM MST
Astronomical Twilight 5:48 AM MST 6:38 PM MST
Moon 3:20 PM MST (1/13) 5:14 AM MST (1/13)
Length of Visible Light 10h 38m
Length of Day
9h 39m
Waxing Gibbous, 95% of the Moon is Illuminated
Jan 13
Waxing Gibbous
Jan 15
Full
Jan 23
Last Quarter
Jan 30
New
Feb 6
First Quarter

Hourly Weather History & Observations

Time (MST) Temp. Windchill Dew Point Humidity Pressure Visibility Wind Dir Wind Speed Gust Speed Precip Events Conditions
12:16 AM 6.8 °F -17.9 °F -0.4 °F 72% 29.91 in - West 34.5 mph 40.3 mph N/A   Overcast
12:35 AM 6.8 °F -17.6 °F -0.4 °F 72% 29.92 in - WNW 33.4 mph 44.9 mph N/A   Overcast
1:11 AM 6.8 °F -16.6 °F -0.4 °F 72% 29.93 in - West 29.9 mph 46.0 mph N/A   Overcast
1:36 AM 6.8 °F -19.3 °F -0.4 °F 72% 29.92 in - West 40.3 mph 50.6 mph N/A   Overcast
1:56 AM 6.8 °F -17.9 °F -0.4 °F 72% 29.94 in - West 34.5 mph 47.2 mph N/A   Overcast
2:16 AM 6.8 °F -16.9 °F -0.4 °F 72% 29.95 in - West 31.1 mph 36.8 mph N/A   Overcast
2:36 AM 6.8 °F -16.6 °F -0.4 °F 72% 29.95 in - West 29.9 mph 43.7 mph N/A   Overcast
2:56 AM 6.8 °F -17.9 °F -0.4 °F 72% 29.96 in - West 34.5 mph 41.4 mph N/A   Overcast
3:16 AM 6.8 °F -19.3 °F -0.4 °F 72% 29.96 in - West 40.3 mph 46.0 mph N/A   Overcast
3:36 AM 8.6 °F -16.6 °F -0.4 °F 67% 29.96 in - West 39.1 mph 48.3 mph N/A   Overcast
3:56 AM 8.6 °F -16.8 °F -0.4 °F 67% 29.96 in - West 40.3 mph 50.6 mph N/A   Overcast
4:16 AM 8.6 °F -16.8 °F 1.4 °F 73% 29.95 in - West 40.3 mph 52.9 mph N/A   Overcast
4:36 AM 8.6 °F -12.3 °F 1.4 °F 73% 29.98 in - West 24.2 mph 47.2 mph N/A   Overcast
4:56 AM 8.6 °F -14.8 °F 1.4 °F 73% 29.98 in - West 32.2 mph 44.9 mph N/A   Overcast
5:16 AM 8.6 °F -15.7 °F 1.4 °F 73% 29.98 in - West 35.7 mph 49.5 mph N/A   Overcast
5:36 AM 8.6 °F -15.7 °F 1.4 °F 73% 29.98 in - West 35.7 mph 49.5 mph N/A   Overcast
5:56 AM 8.6 °F -16.0 °F 1.4 °F 73% 29.99 in - West 36.8 mph 46.0 mph N/A   Overcast
6:16 AM 8.6 °F -16.6 °F 1.4 °F 73% 29.99 in - West 39.1 mph 47.2 mph N/A   Overcast
6:36 AM 8.6 °F -14.8 °F 1.4 °F 73% 30.01 in - West 32.2 mph 46.0 mph N/A   Overcast
6:56 AM 8.6 °F -16.8 °F 1.4 °F 73% 30.00 in - West 40.3 mph 47.2 mph N/A   Overcast
7:16 AM 8.6 °F -17.6 °F 1.4 °F 73% 29.97 in - West 43.7 mph 54.1 mph N/A   Overcast
7:36 AM 8.6 °F -14.1 °F 1.4 °F 73% 30.04 in - West 29.9 mph 54.1 mph N/A   Overcast
7:56 AM 8.6 °F - 1.4 °F 73% 30.06 in - North - - N/A   Overcast
8:16 AM 8.6 °F - 1.4 °F 73% 30.09 in - North - - N/A   Overcast
8:36 AM 10.4 °F -11.7 °F 5.0 °F 79% 30.09 in - West 29.9 mph 38.0 mph N/A   Overcast
8:56 AM 10.4 °F -9.9 °F 3.2 °F 73% 30.12 in - West 24.2 mph 35.7 mph N/A   Overcast
9:16 AM 10.4 °F -9.1 °F 3.2 °F 73% 30.13 in - West 21.9 mph - N/A   Overcast
9:36 AM 10.4 °F -7.2 °F 3.2 °F 73% 30.14 in - West 17.3 mph - N/A   Overcast
9:56 AM 10.4 °F -5.4 °F 3.2 °F 73% 30.15 in - West 13.8 mph 20.7 mph N/A   Overcast
10:16 AM 12.2 °F -5.8 °F 5.0 °F 73% 30.15 in - West 19.6 mph 24.2 mph N/A   Overcast
10:36 AM 12.2 °F -1.8 °F 5.0 °F 73% 30.15 in - West 11.5 mph - N/A   Overcast
10:56 AM 12.2 °F -1.8 °F 5.0 °F 73% 30.17 in - West 11.5 mph - N/A   Overcast
11:16 AM 12.2 °F -1.8 °F 5.0 °F 73% 30.17 in - West 11.5 mph - N/A   Overcast
11:36 AM 12.2 °F -2.5 °F 5.0 °F 73% 30.15 in - West 12.7 mph - N/A   Overcast
11:56 AM 12.2 °F 2.9 °F 5.0 °F 73% 30.14 in - WSW 5.8 mph 17.3 mph N/A   Overcast
12:16 PM 14.0 °F 2.0 °F 8.6 °F 79% 30.12 in - WSW 9.2 mph 17.3 mph N/A   Overcast
12:36 PM 14.0 °F -5.5 °F 8.6 °F 79% 30.10 in - West 25.3 mph 36.8 mph N/A   Overcast
12:56 PM 14.0 °F -4.3 °F 8.6 °F 79% 30.10 in - West 21.9 mph 36.8 mph N/A   Mostly Cloudy
1:16 PM 14.0 °F -3.4 °F 8.6 °F 79% 30.10 in - West 19.6 mph 33.4 mph N/A   Overcast
1:36 PM 14.0 °F -3.9 °F 8.6 °F 79% 30.10 in - West 20.7 mph 29.9 mph N/A   Overcast
1:56 PM 14.0 °F -3.9 °F 8.6 °F 79% 30.10 in - West 20.7 mph 31.1 mph N/A   Overcast
2:16 PM 15.8 °F - 10.4 °F 79% 30.11 in - North - - N/A   Overcast
2:36 PM 17.6 °F -1.9 °F 10.4 °F 73% 30.10 in - West 29.9 mph 36.8 mph N/A   Overcast
2:56 PM 17.6 °F -0.6 °F 10.4 °F 73% 30.12 in - West 25.3 mph 35.7 mph N/A   Overcast
3:16 PM 17.6 °F -1.6 °F 10.4 °F 73% 30.11 in - West 28.8 mph 39.1 mph N/A   Overcast
3:36 PM 17.6 °F -0.6 °F 10.4 °F 73% 30.12 in - West 25.3 mph 41.4 mph N/A   Overcast
3:56 PM 17.6 °F -1.3 °F 10.4 °F 73% 30.12 in - West 27.6 mph 38.0 mph N/A   Overcast
4:16 PM 17.6 °F -4.1 °F 10.4 °F 73% 30.11 in - WSW 39.1 mph 44.9 mph N/A   Overcast
4:36 PM 17.6 °F -1.3 °F 10.4 °F 73% 30.13 in - WSW 27.6 mph 42.6 mph N/A   Overcast
4:56 PM 17.6 °F -3.1 °F 10.4 °F 73% 30.12 in 0.2 mi West 34.5 mph 48.3 mph N/A Snow Heavy Snow
5:16 PM 15.8 °F -4.7 °F 10.4 °F 79% 30.13 in 0.5 mi West 31.1 mph 35.7 mph N/A Snow Light Snow
5:36 PM 15.8 °F -3.4 °F 10.4 °F 79% 30.14 in - West 26.5 mph - N/A   Overcast
5:56 PM 14.0 °F -4.7 °F 8.6 °F 79% 30.14 in - West 23.0 mph 32.2 mph N/A   Overcast
6:16 PM 14.0 °F -3.0 °F 8.6 °F 79% 30.14 in - West 18.4 mph - N/A   Overcast
6:36 PM 14.0 °F -2.0 °F 8.6 °F 79% 30.15 in - WNW 16.1 mph 20.7 mph N/A   Overcast
6:56 PM 14.0 °F - 8.6 °F 79% 30.15 in - North - - N/A   Overcast
7:16 PM 14.0 °F 0.5 °F 8.6 °F 79% 30.16 in - West 11.5 mph - N/A   Overcast
7:36 PM 14.0 °F -3.0 °F 8.6 °F 79% 30.16 in - West 18.4 mph 25.3 mph N/A   Overcast
7:56 PM 15.8 °F -1.9 °F 8.6 °F 73% 30.15 in - West 21.9 mph 31.1 mph N/A   Overcast
8:16 PM 15.8 °F -1.1 °F 8.6 °F 73% 30.15 in - West 19.6 mph 23.0 mph N/A   Overcast
8:36 PM 15.8 °F -4.4 °F 10.4 °F 79% 30.14 in - West 29.9 mph 40.3 mph N/A   Overcast
8:56 PM 15.8 °F -3.4 °F 10.4 °F 79% 30.15 in - West 26.5 mph 34.5 mph N/A   Overcast
9:16 PM 15.8 °F - 10.4 °F 79% 30.15 in - North - - N/A   Overcast
9:36 PM 15.8 °F -2.7 °F 10.4 °F 79% 30.17 in - West 24.2 mph - N/A   Overcast
9:56 PM 15.8 °F -1.5 °F 10.4 °F 79% 30.15 in - West 20.7 mph 32.2 mph N/A   Overcast
10:16 PM 15.8 °F -5.2 °F 10.4 °F 79% 30.12 in - West 33.4 mph 48.3 mph N/A   Overcast
10:36 PM 15.8 °F -5.5 °F 10.4 °F 79% 30.11 in - West 34.5 mph 54.1 mph N/A   Overcast
10:56 PM 15.8 °F -5.8 °F 10.4 °F 79% 30.11 in - West 35.7 mph 48.3 mph N/A   Overcast
11:16 PM 15.8 °F -4.4 °F 10.4 °F 79% 30.12 in - West 29.9 mph 49.5 mph N/A   Overcast
11:36 PM 15.8 °F -6.1 °F 8.6 °F 73% 30.10 in - West 36.8 mph 62.1 mph N/A   Overcast
11:56 PM 15.8 °F -7.0 °F 8.6 °F 73% 30.10 in - West 41.4 mph 48.3 mph N/A   Overcast